Time,TemperatureF,DewpointF,PressureIn,WindDirection,WindDirectionDegrees,WindSpeedMPH,WindSpeedGustMPH,Humidity,HourlyPrecipIn,Conditions,Clouds,dailyrainin,SoftwareType,DateUTC
2013-08-13 00:00:00,65.7,37.2,29.87,NNE,26,0.0,4.0,35,0.00,,,-99.99,Weather View 32 v60,2013-08-13 04:00:00,
2013-08-13 00:04:00,65.5,37.0,29.87,NE,42,0.0,4.0,35,0.00,,,-99.99,Weather View 32 v60,2013-08-13 04:04:00,
2013-08-13 00:09:00,65.3,37.6,29.87,NE,34,0.0,4.0,36,0.00,,,-99.99,Weather View 32 v60,2013-08-13 04:09:00,
2013-08-13 00:14:00,65.1,37.4,29.87,NNE,25,0.0,4.0,36,0.00,,,-99.99,Weather View 32 v60,2013-08-13 04:14:00,
2013-08-13 00:19:00,64.9,37.3,29.87,North,357,0.0,6.0,36,0.00,,,-99.99,Weather View 32 v60,2013-08-13 04:19:00,
2013-08-13 00:24:00,64.8,37.1,29.87,North,357,0.0,6.0,36,0.00,,,-99.99,Weather View 32 v60,2013-08-13 04:24:00,
2013-08-13 00:29:00,64.6,37.7,29.87,North,357,0.0,6.0,37,0.00,,,-99.99,Weather View 32 v60,2013-08-13 04:29:00,
2013-08-13 00:35:00,64.4,37.5,29.87,North,357,0.0,6.0,37,0.00,,,-99.99,Weather View 32 v60,2013-08-13 04:35:00,
2013-08-13 00:40:00,64.4,37.5,29.87,North,357,0.0,6.0,37,0.00,,,-99.99,Weather View 32 v60,2013-08-13 04:40:00,
2013-08-13 00:45:00,64.2,38.0,29.87,North,357,0.0,6.0,38,0.00,,,-99.99,Weather View 32 v60,2013-08-13 04:45:00,
2013-08-13 00:50:00,64.2,38.0,29.87,North,357,0.0,6.0,38,0.00,,,-99.99,Weather View 32 v60,2013-08-13 04:50:00,
2013-08-13 00:55:00,64.0,38.5,29.87,North,357,0.0,6.0,39,0.00,,,-99.99,Weather View 32 v60,2013-08-13 04:55:00,
2013-08-13 01:00:00,63.9,38.4,29.87,North,357,0.0,6.0,39,0.00,,,-99.99,Weather View 32 v60,2013-08-13 05:00:00,
2013-08-13 01:05:00,63.9,39.0,29.87,North,357,0.0,6.0,40,0.00,,,-99.99,Weather View 32 v60,2013-08-13 05:05:00,
2013-08-13 01:10:00,63.9,39.0,29.87,North,357,0.0,6.0,40,0.00,,,-99.99,Weather View 32 v60,2013-08-13 05:10:00,
2013-08-13 01:15:00,63.9,39.6,29.87,North,357,0.0,6.0,41,0.00,,,-99.99,Weather View 32 v60,2013-08-13 05:15:00,
2013-08-13 01:20:00,63.7,40.1,29.87,NNW,343,4.0,4.0,42,0.00,,,-99.99,Weather View 32 v60,2013-08-13 05:20:00,
2013-08-13 01:25:00,63.7,39.5,29.87,NNW,341,0.0,4.0,41,0.00,,,-99.99,Weather View 32 v60,2013-08-13 05:25:00,
2013-08-13 01:30:00,63.7,39.5,29.87,NNW,333,0.0,4.0,41,0.00,,,-99.99,Weather View 32 v60,2013-08-13 05:30:00,
2013-08-13 01:35:00,63.5,38.0,29.87,North,353,3.0,4.0,39,0.00,,,-99.99,Weather View 32 v60,2013-08-13 05:35:00,
2013-08-13 01:40:00,63.5,37.4,29.87,NNE,21,2.0,4.0,38,0.00,,,-99.99,Weather View 32 v60,2013-08-13 05:40:00,
2013-08-13 01:45:00,63.1,36.4,29.87,NNW,337,0.0,4.0,37,0.00,,,-99.99,Weather View 32 v60,2013-08-13 05:45:00,
2013-08-13 01:50:00,63.0,35.5,29.90,NW,311,3.0,4.0,36,0.00,,,-99.99,Weather View 32 v60,2013-08-13 05:50:00,
2013-08-13 01:55:00,62.6,35.9,29.90,NNW,342,3.0,5.0,37,0.00,,,-99.99,Weather View 32 v60,2013-08-13 05:55:00,
2013-08-13 02:00:00,62.4,35.7,29.90,NNW,328,3.0,5.0,37,0.00,,,-99.99,Weather View 32 v60,2013-08-13 06:00:00,
2013-08-13 02:05:00,62.1,36.1,29.90,NW,325,0.0,5.0,38,0.00,,,-99.99,Weather View 32 v60,2013-08-13 06:05:00,
2013-08-13 02:10:00,61.7,35.8,29.90,NW,321,3.0,6.0,38,0.00,,,-99.99,Weather View 32 v60,2013-08-13 06:10:00,
2013-08-13 02:15:00,61.3,35.5,29.90,NNW,340,3.0,6.0,38,0.00,,,-99.99,Weather View 32 v60,2013-08-13 06:15:00,
2013-08-13 02:20:00,60.8,35.0,29.90,NNW,329,3.0,6.0,38,0.00,,,-99.99,Weather View 32 v60,2013-08-13 06:20:00,
2013-08-13 02:25:00,60.4,35.3,29.90,South,170,3.0,6.0,39,0.00,,,-99.99,Weather View 32 v60,2013-08-13 06:25:00,
2013-08-13 02:30:00,60.1,35.0,29.90,NNW,327,3.0,6.0,39,0.00,,,-99.99,Weather View 32 v60,2013-08-13 06:30:00,
2013-08-13 02:35:00,59.9,34.8,29.90,NW,326,4.0,6.0,39,0.00,,,-99.99,Weather View 32 v60,2013-08-13 06:35:00,
2013-08-13 02:40:00,59.5,34.5,29.90,ENE,61,3.0,7.0,39,0.00,,,-99.99,Weather View 32 v60,2013-08-13 06:40:00,
2013-08-13 02:45:00,59.4,35.0,29.90,NW,326,3.0,7.0,40,0.00,,,-99.99,Weather View 32 v60,2013-08-13 06:45:00,
2013-08-13 02:50:00,59.2,34.8,29.90,NW,324,3.0,7.0,40,0.00,,,-99.99,Weather View 32 v60,2013-08-13 06:50:00,
2013-08-13 02:55:00,59.0,34.7,29.90,NNW,346,0.0,7.0,40,0.00,,,-99.99,Weather View 32 v60,2013-08-13 06:55:00,
2013-08-13 03:00:00,58.8,35.1,29.90,NNW,345,0.0,7.0,41,0.00,,,-99.99,Weather View 32 v60,2013-08-13 07:00:00,
2013-08-13 03:05:00,58.6,35.0,29.90,NNW,344,3.0,7.0,41,0.00,,,-99.99,Weather View 32 v60,2013-08-13 07:05:00,
2013-08-13 03:10:00,58.5,34.8,29.90,NNW,341,2.0,7.0,41,0.00,,,-99.99,Weather View 32 v60,2013-08-13 07:10:00,
2013-08-13 03:15:00,58.1,34.5,29.90,NNW,337,2.0,7.0,41,0.00,,,-99.99,Weather View 32 v60,2013-08-13 07:15:00,
2013-08-13 03:25:00,57.7,34.8,29.90,NW,320,0.0,7.0,42,0.00,,,-99.99,Weather View 32 v60,2013-08-13 07:25:00,
2013-08-13 03:30:00,57.6,34.6,29.90,NW,320,0.0,7.0,42,0.00,,,-99.99,Weather View 32 v60,2013-08-13 07:30:00,
2013-08-13 03:35:00,57.4,35.0,29.90,NW,320,0.0,7.0,43,0.00,,,-99.99,Weather View 32 v60,2013-08-13 07:35:00,
2013-08-13 03:40:00,57.0,35.3,29.90,NW,320,0.0,4.0,44,0.00,,,-99.99,Weather View 32 v60,2013-08-13 07:40:00,
2013-08-13 03:45:00,56.8,35.7,29.90,NW,320,0.0,4.0,45,0.00,,,-99.99,Weather View 32 v60,2013-08-13 07:45:00,
2013-08-13 03:50:00,56.7,35.5,29.90,NW,320,0.0,4.0,45,0.00,,,-99.99,Weather View 32 v60,2013-08-13 07:50:00,
2013-08-13 03:55:00,56.5,35.4,29.90,North,357,0.0,4.0,45,0.00,,,-99.99,Weather View 32 v60,2013-08-13 07:55:00,
2013-08-13 04:00:00,56.3,35.2,29.90,North,357,0.0,4.0,45,0.00,,,-99.99,Weather View 32 v60,2013-08-13 08:00:00,
2013-08-13 04:05:00,56.1,35.0,29.90,North,357,0.0,4.0,45,0.00,,,-99.99,Weather View 32 v60,2013-08-13 08:05:00,
2013-08-13 04:10:00,55.9,35.4,29.90,NW,312,3.0,6.0,46,0.00,,,-99.99,Weather View 32 v60,2013-08-13 08:10:00,
2013-08-13 04:15:00,55.8,35.2,29.90,NNW,330,3.0,6.0,46,0.00,,,-99.99,Weather View 32 v60,2013-08-13 08:15:00,
2013-08-13 04:25:00,55.4,34.9,29.90,North,353,0.0,6.0,46,0.00,,,-99.99,Weather View 32 v60,2013-08-13 08:25:00,
2013-08-13 04:30:00,55.4,34.9,29.90,NW,326,3.0,6.0,46,0.00,,,-99.99,Weather View 32 v60,2013-08-13 08:30:00,
2013-08-13 04:35:00,55.2,34.8,29.90,NNE,17,0.0,6.0,46,0.00,,,-99.99,Weather View 32 v60,2013-08-13 08:35:00,
2013-08-13 04:40:00,55.0,34.6,29.90,WNW,295,0.0,6.0,46,0.00,,,-99.99,Weather View 32 v60,2013-08-13 08:40:00,
2013-08-13 04:45:00,55.0,34.6,29.90,NNW,340,3.0,6.0,46,0.00,,,-99.99,Weather View 32 v60,2013-08-13 08:45:00,
2013-08-13 04:50:00,54.9,34.4,29.90,North,0,2.0,8.0,46,0.00,,,-99.99,Weather View 32 v60,2013-08-13 08:50:00,
2013-08-13 04:55:00,54.7,34.3,29.90,NNW,337,6.0,8.0,46,0.00,,,-99.99,Weather View 32 v60,2013-08-13 08:55:00,
2013-08-13 05:00:00,54.5,34.1,29.90,NW,316,4.0,8.0,46,0.00,,,-99.99,Weather View 32 v60,2013-08-13 09:00:00,
2013-08-13 05:05:00,54.5,33.6,29.90,NW,326,2.0,8.0,45,0.00,,,-99.99,Weather View 32 v60,2013-08-13 09:05:00,
2013-08-13 05:14:00,54.1,33.2,29.90,NNW,335,3.0,8.0,45,0.00,,,-99.99,Weather View 32 v60,2013-08-13 09:14:00,
2013-08-13 05:19:00,54.1,33.2,29.90,West,270,0.0,8.0,45,0.00,,,-99.99,Weather View 32 v60,2013-08-13 09:19:00,
2013-08-13 05:24:00,54.0,33.1,29.90,NNW,334,0.0,8.0,45,0.00,,,-99.99,Weather View 32 v60,2013-08-13 09:24:00,
2013-08-13 05:30:00,54.0,32.5,29.90,NW,314,3.0,8.0,44,0.00,,,-99.99,Weather View 32 v60,2013-08-13 09:30:00,
2013-08-13 05:35:00,53.8,32.3,29.90,NW,320,0.0,8.0,44,0.00,,,-99.99,Weather View 32 v60,2013-08-13 09:35:00,
2013-08-13 05:40:00,53.6,32.2,29.90,NW,325,0.0,8.0,44,0.00,,,-99.99,Weather View 32 v60,2013-08-13 09:40:00,
2013-08-13 05:45:00,53.6,32.2,29.90,North,357,0.0,8.0,44,0.00,,,-99.99,Weather View 32 v60,2013-08-13 09:45:00,
2013-08-13 05:50:00,53.4,32.0,29.93,North,357,0.0,6.0,44,0.00,,,-99.99,Weather View 32 v60,2013-08-13 09:50:00,
2013-08-13 05:55:00,53.4,32.0,29.93,North,357,0.0,6.0,44,0.00,,,-99.99,Weather View 32 v60,2013-08-13 09:55:00,
2013-08-13 06:00:00,53.2,31.8,29.93,North,357,0.0,5.0,44,0.00,,,-99.99,Weather View 32 v60,2013-08-13 10:00:00,
2013-08-13 06:09:00,52.9,32.1,29.93,North,0,0.0,4.0,45,0.00,,,-99.99,Weather View 32 v60,2013-08-13 10:09:00,
2013-08-13 06:14:00,52.7,31.9,29.93,North,0,0.0,4.0,45,0.00,,,-99.99,Weather View 32 v60,2013-08-13 10:14:00,
2013-08-13 06:19:00,52.3,31.6,29.93,NW,325,0.0,4.0,45,0.00,,,-99.99,Weather View 32 v60,2013-08-13 10:19:00,
2013-08-13 06:25:00,52.2,31.4,29.93,NW,325,0.0,4.0,45,0.00,,,-99.99,Weather View 32 v60,2013-08-13 10:25:00,
2013-08-13 06:30:00,52.0,31.3,29.93,WNW,301,2.0,4.0,45,0.00,,,-99.99,Weather View 32 v60,2013-08-13 10:30:00,
2013-08-13 06:35:00,51.8,31.1,29.93,WNW,299,0.0,4.0,45,0.00,,,-99.99,Weather View 32 v60,2013-08-13 10:35:00,
2013-08-13 06:40:00,51.6,31.5,29.93,WNW,298,0.0,4.0,46,0.00,,,-99.99,Weather View 32 v60,2013-08-13 10:40:00,
2013-08-13 06:45:00,51.3,31.1,29.93,WNW,299,3.0,4.0,46,0.00,,,-99.99,Weather View 32 v60,2013-08-13 10:45:00,
2013-08-13 06:50:00,51.1,31.5,29.93,NW,324,0.0,4.0,47,0.00,,,-99.99,Weather View 32 v60,2013-08-13 10:50:00,
2013-08-13 06:55:00,50.9,31.4,29.93,NW,309,0.0,4.0,47,0.00,,,-99.99,Weather View 32 v60,2013-08-13 10:55:00,
2013-08-13 07:04:00,50.5,31.0,29.96,NW,309,0.0,4.0,47,0.00,,,-99.99,Weather View 32 v60,2013-08-13 11:04:00,
2013-08-13 07:09:00,50.5,31.0,29.96,NW,309,0.0,4.0,47,0.00,,,-99.99,Weather View 32 v60,2013-08-13 11:09:00,
2013-08-13 07:15:00,50.4,30.9,29.96,NW,309,0.0,4.0,47,0.00,,,-99.99,Weather View 32 v60,2013-08-13 11:15:00,
2013-08-13 07:20:00,50.4,31.4,29.96,NW,309,0.0,4.0,48,0.00,,,-99.99,Weather View 32 v60,2013-08-13 11:20:00,
2013-08-13 07:25:00,50.4,31.4,29.96,NW,325,0.0,4.0,48,0.00,,,-99.99,Weather View 32 v60,2013-08-13 11:25:00,
2013-08-13 07:30:00,50.4,31.9,29.96,NW,325,0.0,4.0,49,0.00,,,-99.99,Weather View 32 v60,2013-08-13 11:30:00,
2013-08-13 07:40:00,50.7,32.7,29.96,NNW,344,0.0,4.0,50,0.00,,,-99.99,Weather View 32 v60,2013-08-13 11:40:00,
2013-08-13 07:49:00,51.1,33.5,29.96,NW,312,0.0,4.0,51,0.00,,,-99.99,Weather View 32 v60,2013-08-13 11:49:00,
2013-08-13 07:54:00,51.4,33.9,29.96,WNW,298,0.0,4.0,51,0.00,,,-99.99,Weather View 32 v60,2013-08-13 11:54:00,
2013-08-13 08:00:00,51.6,34.0,29.96,NW,310,0.0,4.0,51,0.00,,,-99.99,Weather View 32 v60,2013-08-13 12:00:00,
2013-08-13 08:05:00,51.8,34.2,29.96,WNW,282,0.0,4.0,51,0.00,,,-99.99,Weather View 32 v60,2013-08-13 12:05:00,
2013-08-13 08:10:00,52.0,34.4,29.96,NW,319,0.0,4.0,51,0.00,,,-99.99,Weather View 32 v60,2013-08-13 12:10:00,
2013-08-13 08:15:00,52.3,34.2,29.96,NNW,341,3.0,4.0,50,0.00,,,-99.99,Weather View 32 v60,2013-08-13 12:15:00,
2013-08-13 08:20:00,52.5,33.9,29.96,NW,325,5.0,6.0,49,0.00,,,-99.99,Weather View 32 v60,2013-08-13 12:20:00,
2013-08-13 08:25:00,52.9,33.7,29.96,NW,326,3.0,6.0,48,0.00,,,-99.99,Weather View 32 v60,2013-08-13 12:25:00,
2013-08-13 08:34:00,53.4,33.7,29.99,NNW,327,0.0,6.0,47,0.00,,,-99.99,Weather View 32 v60,2013-08-13 12:34:00,
2013-08-13 08:39:00,53.8,32.9,29.99,NNW,343,3.0,8.0,45,0.00,,,-99.99,Weather View 32 v60,2013-08-13 12:39:00,
2013-08-13 08:44:00,54.0,31.9,29.99,NNW,333,2.0,8.0,43,0.00,,,-99.99,Weather View 32 v60,2013-08-13 12:44:00,
2013-08-13 08:50:00,54.3,31.7,29.99,NW,315,5.0,8.0,42,0.00,,,-99.99,Weather View 32 v60,2013-08-13 12:50:00,
2013-08-13 08:55:00,54.5,31.2,29.99,NNW,328,4.0,8.0,41,0.00,,,-99.99,Weather View 32 v60,2013-08-13 12:55:00,
2013-08-13 09:00:00,54.5,30.6,29.99,NE,51,3.0,8.0,40,0.00,,,-99.99,Weather View 32 v60,2013-08-13 13:00:00,
2013-08-13 09:05:00,54.7,31.4,29.99,NNW,341,4.0,9.0,41,0.00,,,-99.99,Weather View 32 v60,2013-08-13 13:05:00,
2013-08-13 09:10:00,55.0,31.1,29.99,NNE,28,4.0,9.0,40,0.00,,,-99.99,Weather View 32 v60,2013-08-13 13:10:00,
2013-08-13 09:18:00,55.2,31.3,29.99,East,91,3.0,9.0,40,0.00,,,-99.99,Weather View 32 v60,2013-08-13 13:18:00,
2013-08-13 09:24:00,55.8,30.5,29.99,WNW,302,4.0,9.0,38,0.00,,,-99.99,Weather View 32 v60,2013-08-13 13:24:00,
2013-08-13 09:29:00,55.9,30.6,29.99,NNW,333,3.0,9.0,38,0.00,,,-99.99,Weather View 32 v60,2013-08-13 13:29:00,
2013-08-13 09:35:00,56.1,30.8,29.99,North,0,4.0,9.0,38,0.00,,,-99.99,Weather View 32 v60,2013-08-13 13:35:00,
2013-08-13 09:40:00,56.3,30.3,29.99,WNW,286,4.0,9.0,37,0.00,,,-99.99,Weather View 32 v60,2013-08-13 13:40:00,
2013-08-13 09:45:00,56.3,30.3,29.99,WNW,295,2.0,9.0,37,0.00,,,-99.99,Weather View 32 v60,2013-08-13 13:45:00,
2013-08-13 09:50:00,56.7,30.0,29.99,NW,317,4.0,9.0,36,0.00,,,-99.99,Weather View 32 v60,2013-08-13 13:50:00,
2013-08-13 09:55:00,56.8,30.1,29.99,NNW,340,4.0,9.0,36,0.00,,,-99.99,Weather View 32 v60,2013-08-13 13:55:00,
2013-08-13 10:00:00,57.0,30.3,29.99,North,4,5.0,9.0,36,0.00,,,-99.99,Weather View 32 v60,2013-08-13 14:00:00,
2013-08-13 10:09:00,57.4,29.9,29.99,North,8,4.0,8.0,35,0.00,,,-99.99,Weather View 32 v60,2013-08-13 14:09:00,
2013-08-13 10:14:00,57.6,30.1,29.99,NNW,337,4.0,8.0,35,0.00,,,-99.99,Weather View 32 v60,2013-08-13 14:14:00,
2013-08-13 10:19:00,57.6,30.1,29.99,NNW,338,4.0,8.0,35,0.00,,,-99.99,Weather View 32 v60,2013-08-13 14:19:00,
2013-08-13 10:25:00,57.9,30.4,29.99,NNW,334,4.0,8.0,35,0.00,,,-99.99,Weather View 32 v60,2013-08-13 14:25:00,
2013-08-13 10:30:00,58.1,29.8,29.99,NNW,330,5.0,8.0,34,0.00,,,-99.99,Weather View 32 v60,2013-08-13 14:30:00,
2013-08-13 10:35:00,58.3,29.2,29.99,NNE,27,4.0,8.0,33,0.00,,,-99.99,Weather View 32 v60,2013-08-13 14:35:00,
2013-08-13 10:40:00,58.5,29.4,29.99,North,11,4.0,10.0,33,0.00,,,-99.99,Weather View 32 v60,2013-08-13 14:40:00,
2013-08-13 10:49:00,59.0,29.1,30.02,NW,317,4.0,10.0,32,0.00,,,-99.99,Weather View 32 v60,2013-08-13 14:49:00,
2013-08-13 10:54:00,59.4,28.7,30.02,North,357,3.0,10.0,31,0.00,,,-99.99,Weather View 32 v60,2013-08-13 14:54:00,
2013-08-13 10:59:00,59.4,29.4,30.02,NNW,344,6.0,10.0,32,0.00,,,-99.99,Weather View 32 v60,2013-08-13 14:59:00,
2013-08-13 11:05:00,59.5,29.6,29.99,NW,316,3.0,10.0,32,0.00,,,-99.99,Weather View 32 v60,2013-08-13 15:05:00,
2013-08-13 11:10:00,59.7,29.7,29.99,NNW,330,8.0,10.0,32,0.00,,,-99.99,Weather View 32 v60,2013-08-13 15:10:00,
2013-08-13 11:15:00,59.9,29.1,29.99,North,357,3.0,10.0,31,0.00,,,-99.99,Weather View 32 v60,2013-08-13 15:15:00,
2013-08-13 11:20:00,60.1,29.3,30.02,NNW,334,3.0,10.0,31,0.00,,,-99.99,Weather View 32 v60,2013-08-13 15:20:00,
2013-08-13 11:25:00,60.4,28.8,30.02,NNW,330,4.0,11.0,30,0.00,,,-99.99,Weather View 32 v60,2013-08-13 15:25:00,
2013-08-13 11:34:00,60.8,29.1,30.02,NNW,330,3.0,11.0,30,0.00,,,-99.99,Weather View 32 v60,2013-08-13 15:34:00,
2013-08-13 11:39:00,61.0,29.3,30.02,NE,38,4.0,11.0,30,0.00,,,-99.99,Weather View 32 v60,2013-08-13 15:39:00,
2013-08-13 11:45:00,61.0,28.4,30.02,NNW,345,3.0,11.0,29,0.00,,,-99.99,Weather View 32 v60,2013-08-13 15:45:00,
2013-08-13 11:50:00,61.0,27.6,30.02,North,353,3.0,11.0,28,0.00,,,-99.99,Weather View 32 v60,2013-08-13 15:50:00,
2013-08-13 11:55:00,61.0,28.4,30.02,WNW,290,3.0,11.0,29,0.00,,,-99.99,Weather View 32 v60,2013-08-13 15:55:00,
2013-08-13 12:00:00,61.0,28.4,30.02,NNW,329,3.0,11.0,29,0.00,,,-99.99,Weather View 32 v60,2013-08-13 16:00:00,
2013-08-13 12:09:00,61.0,28.4,30.02,NNW,331,3.0,11.0,29,0.00,,,-99.99,Weather View 32 v60,2013-08-13 16:09:00,
2013-08-13 12:14:00,61.2,29.4,30.02,North,9,4.0,11.0,30,0.00,,,-99.99,Weather View 32 v60,2013-08-13 16:14:00,
2013-08-13 12:20:00,61.5,28.9,29.99,NNW,336,3.0,11.0,29,0.00,,,-99.99,Weather View 32 v60,2013-08-13 16:20:00,
2013-08-13 12:30:00,61.7,29.9,29.99,NW,304,4.0,11.0,30,0.00,,,-99.99,Weather View 32 v60,2013-08-13 16:30:00,
2013-08-13 12:35:00,61.7,29.1,29.99,NW,323,4.0,11.0,29,0.00,,,-99.99,Weather View 32 v60,2013-08-13 16:35:00,
2013-08-13 12:40:00,61.7,29.1,29.99,North,353,3.0,11.0,29,0.00,,,-99.99,Weather View 32 v60,2013-08-13 16:40:00,
2013-08-13 12:45:00,61.7,28.2,29.99,NW,319,8.0,11.0,28,0.00,,,-99.99,Weather View 32 v60,2013-08-13 16:45:00,
2013-08-13 12:54:00,61.7,27.3,29.99,NNW,346,3.0,11.0,27,0.00,,,-99.99,Weather View 32 v60,2013-08-13 16:54:00,
2013-08-13 13:00:00,61.7,28.2,29.99,North,353,3.0,11.0,28,0.00,,,-99.99,Weather View 32 v60,2013-08-13 17:00:00,
2013-08-13 13:05:00,61.9,28.3,29.99,NNW,333,4.0,11.0,28,0.00,,,-99.99,Weather View 32 v60,2013-08-13 17:05:00,
2013-08-13 13:14:00,62.6,27.2,29.99,NNW,327,5.0,11.0,26,0.00,,,-99.99,Weather View 32 v60,2013-08-13 17:14:00,
2013-08-13 13:19:00,63.0,26.5,29.99,West,262,9.0,11.0,25,0.00,,,-99.99,Weather View 32 v60,2013-08-13 17:19:00,
2013-08-13 13:24:00,63.3,27.8,29.99,North,0,9.0,20.0,26,0.00,,,-99.99,Weather View 32 v60,2013-08-13 17:24:00,
2013-08-13 13:29:00,63.7,28.1,29.99,ENE,69,4.0,20.0,26,0.00,,,-99.99,Weather View 32 v60,2013-08-13 17:29:00,
2013-08-13 13:34:00,63.9,27.3,29.99,NNW,332,3.0,20.0,25,0.00,,,-99.99,Weather View 32 v60,2013-08-13 17:34:00,
2013-08-13 13:40:00,64.2,27.6,29.99,North,357,4.0,20.0,25,0.00,,,-99.99,Weather View 32 v60,2013-08-13 17:40:00,
2013-08-13 13:45:00,64.2,27.6,29.99,NW,322,3.0,20.0,25,0.00,,,-99.99,Weather View 32 v60,2013-08-13 17:45:00,
2013-08-13 13:50:00,64.0,27.4,29.99,NNW,340,5.0,20.0,25,0.00,,,-99.99,Weather View 32 v60,2013-08-13 17:50:00,
2013-08-13 13:55:00,63.9,27.3,29.99,NW,324,8.0,20.0,25,0.00,,,-99.99,Weather View 32 v60,2013-08-13 17:55:00,
2013-08-13 14:04:00,64.0,27.4,29.99,WNW,298,3.0,20.0,25,0.00,,,-99.99,Weather View 32 v60,2013-08-13 18:04:00,
2013-08-13 14:09:00,64.0,27.4,29.99,West,281,5.0,20.0,25,0.00,,,-99.99,Weather View 32 v60,2013-08-13 18:09:00,
2013-08-13 14:15:00,63.9,27.3,29.99,WNW,300,11.0,20.0,25,0.00,,,-99.99,Weather View 32 v60,2013-08-13 18:15:00,
2013-08-13 14:20:00,63.9,27.3,29.99,WNW,284,13.0,20.0,25,0.00,,,-99.99,Weather View 32 v60,2013-08-13 18:20:00,
2013-08-13 14:25:00,64.2,27.6,29.99,WNW,287,5.0,13.0,25,0.00,,,-99.99,Weather View 32 v60,2013-08-13 18:25:00,
2013-08-13 14:30:00,64.4,26.7,29.99,NNW,335,5.0,13.0,24,0.00,,,-99.99,Weather View 32 v60,2013-08-13 18:30:00,
2013-08-13 14:35:00,64.6,27.9,29.99,North,7,3.0,13.0,25,0.00,,,-99.99,Weather View 32 v60,2013-08-13 18:35:00,
2013-08-13 14:40:00,64.8,28.0,29.99,WNW,303,3.0,13.0,25,0.00,,,-99.99,Weather View 32 v60,2013-08-13 18:40:00,
2013-08-13 14:49:00,65.3,27.5,29.99,North,353,3.0,13.0,24,0.00,,,-99.99,Weather View 32 v60,2013-08-13 18:49:00,
2013-08-13 14:54:00,65.3,27.5,29.99,North,353,3.0,13.0,24,0.00,,,-99.99,Weather View 32 v60,2013-08-13 18:54:00,
2013-08-13 15:00:00,65.3,27.5,29.99,North,353,3.0,13.0,24,0.00,,,-99.99,Weather View 32 v60,2013-08-13 19:00:00,
2013-08-13 15:05:00,64.9,27.2,29.99,NNE,29,2.0,13.0,24,0.00,,,-99.99,Weather View 32 v60,2013-08-13 19:05:00,
2013-08-13 15:10:00,64.8,27.0,29.99,NW,326,4.0,13.0,24,0.00,,,-99.99,Weather View 32 v60,2013-08-13 19:10:00,
2013-08-13 15:15:00,64.6,26.9,29.99,NW,309,5.0,13.0,24,0.00,,,-99.99,Weather View 32 v60,2013-08-13 19:15:00,
2013-08-13 15:22:00,64.6,26.9,29.99,NW,322,4.0,13.0,24,0.00,,,-99.99,Weather View 32 v60,2013-08-13 19:22:00,
2013-08-13 15:29:00,64.9,27.2,29.99,NW,315,6.0,11.0,24,0.00,,,-99.99,Weather View 32 v60,2013-08-13 19:29:00,
2013-08-13 15:34:00,65.1,27.4,29.99,NW,318,6.0,11.0,24,0.00,,,-99.99,Weather View 32 v60,2013-08-13 19:34:00,
2013-08-13 15:39:00,65.1,27.4,29.99,WNW,300,11.0,11.0,24,0.00,,,-99.99,Weather View 32 v60,2013-08-13 19:39:00,
2013-08-13 15:45:00,65.1,27.4,29.99,NW,319,7.0,13.0,24,0.00,,,-99.99,Weather View 32 v60,2013-08-13 19:45:00,
2013-08-13 15:50:00,64.9,26.2,29.99,NW,306,11.0,13.0,23,0.00,,,-99.99,Weather View 32 v60,2013-08-13 19:50:00,
2013-08-13 15:55:00,64.8,27.0,29.99,WNW,302,5.0,13.0,24,0.00,,,-99.99,Weather View 32 v60,2013-08-13 19:55:00,
2013-08-13 16:04:00,65.5,27.7,29.99,WNW,296,3.0,13.0,24,0.00,,,-99.99,Weather View 32 v60,2013-08-13 20:04:00,
2013-08-13 16:09:00,65.5,26.6,29.99,NW,309,4.0,13.0,23,0.00,,,-99.99,Weather View 32 v60,2013-08-13 20:09:00,
2013-08-13 16:14:00,65.5,26.6,29.99,NNW,342,4.0,13.0,23,0.00,,,-99.99,Weather View 32 v60,2013-08-13 20:14:00,
2013-08-13 16:20:00,65.1,26.3,29.99,NW,326,5.0,13.0,23,0.00,,,-99.99,Weather View 32 v60,2013-08-13 20:20:00,
2013-08-13 16:25:00,64.9,26.2,29.99,WNW,301,6.0,13.0,23,0.00,,,-99.99,Weather View 32 v60,2013-08-13 20:25:00,
2013-08-13 16:30:00,64.8,26.0,29.99,NNE,12,8.0,15.0,23,0.00,,,-99.99,Weather View 32 v60,2013-08-13 20:30:00,
2013-08-13 16:35:00,64.8,26.0,29.99,WNW,295,8.0,15.0,23,0.00,,,-99.99,Weather View 32 v60,2013-08-13 20:35:00,
2013-08-13 16:40:00,64.8,26.0,29.99,North,353,4.0,15.0,23,0.00,,,-99.99,Weather View 32 v60,2013-08-13 20:40:00,
2013-08-13 16:49:00,65.3,26.5,29.99,NNW,331,4.0,15.0,23,0.00,,,-99.99,Weather View 32 v60,2013-08-13 20:49:00,
2013-08-13 16:54:00,65.3,26.5,29.99,NNW,331,3.0,15.0,23,0.00,,,-99.99,Weather View 32 v60,2013-08-13 20:54:00,
2013-08-13 16:59:00,65.3,26.5,29.99,NNE,14,4.0,15.0,23,0.00,,,-99.99,Weather View 32 v60,2013-08-13 20:59:00,
2013-08-13 17:05:00,65.1,26.3,29.99,NW,322,3.0,15.0,23,0.00,,,-99.99,Weather View 32 v60,2013-08-13 21:05:00,
2013-08-13 17:10:00,64.9,26.2,29.99,NW,308,4.0,15.0,23,0.00,,,-99.99,Weather View 32 v60,2013-08-13 21:10:00,
2013-08-13 17:15:00,64.8,26.0,29.99,NW,314,4.0,15.0,23,0.00,,,-99.99,Weather View 32 v60,2013-08-13 21:15:00,
2013-08-13 17:20:00,64.8,26.0,29.99,West,278,3.0,15.0,23,0.00,,,-99.99,Weather View 32 v60,2013-08-13 21:20:00,
2013-08-13 17:25:00,64.6,25.9,29.99,WNW,302,3.0,15.0,23,0.00,,,-99.99,Weather View 32 v60,2013-08-13 21:25:00,
2013-08-13 17:34:00,64.8,26.0,29.99,NNE,14,4.0,8.0,23,0.00,,,-99.99,Weather View 32 v60,2013-08-13 21:34:00,
2013-08-13 17:39:00,64.8,26.0,29.99,NW,313,3.0,7.0,23,0.00,,,-99.99,Weather View 32 v60,2013-08-13 21:39:00,
2013-08-13 17:44:00,64.6,25.9,29.99,NE,54,3.0,7.0,23,0.00,,,-99.99,Weather View 32 v60,2013-08-13 21:44:00,
2013-08-13 17:50:00,64.6,26.9,30.02,WNW,293,3.0,7.0,24,0.00,,,-99.99,Weather View 32 v60,2013-08-13 21:50:00,
2013-08-13 17:55:00,64.4,25.7,30.02,NW,320,3.0,6.0,23,0.00,,,-99.99,Weather View 32 v60,2013-08-13 21:55:00,
2013-08-13 18:00:00,64.2,26.6,30.02,WNW,297,4.0,6.0,24,0.00,,,-99.99,Weather View 32 v60,2013-08-13 22:00:00,
2013-08-13 18:05:00,64.2,26.6,30.02,East,83,3.0,6.0,24,0.00,,,-99.99,Weather View 32 v60,2013-08-13 22:05:00,
2013-08-13 18:14:00,64.4,26.7,30.02,WNW,299,3.0,6.0,24,0.00,,,-99.99,Weather View 32 v60,2013-08-13 22:14:00,
2013-08-13 18:19:00,64.2,26.6,30.02,North,1,3.0,6.0,24,0.00,,,-99.99,Weather View 32 v60,2013-08-13 22:19:00,
2013-08-13 18:24:00,64.2,26.6,30.02,NNW,346,4.0,6.0,24,0.00,,,-99.99,Weather View 32 v60,2013-08-13 22:24:00,
2013-08-13 18:30:00,64.0,26.4,30.02,NW,308,3.0,6.0,24,0.00,,,-99.99,Weather View 32 v60,2013-08-13 22:30:00,
2013-08-13 18:35:00,63.9,26.3,30.02,North,353,4.0,8.0,24,0.00,,,-99.99,Weather View 32 v60,2013-08-13 22:35:00,
2013-08-13 18:40:00,63.5,26.0,30.02,NNE,19,0.0,8.0,24,0.00,,,-99.99,Weather View 32 v60,2013-08-13 22:40:00,
2013-08-13 18:49:00,63.1,25.7,30.02,NNW,336,4.0,8.0,24,0.00,,,-99.99,Weather View 32 v60,2013-08-13 22:49:00,
2013-08-13 18:54:00,62.8,25.4,30.02,NNW,330,3.0,8.0,24,0.00,,,-99.99,Weather View 32 v60,2013-08-13 22:54:00,
2013-08-13 19:00:00,62.6,25.2,30.02,North,353,4.0,8.0,24,0.00,,,-99.99,Weather View 32 v60,2013-08-13 23:00:00,
2013-08-13 19:05:00,62.4,26.1,30.02,NNE,30,3.0,8.0,25,0.00,,,-99.99,Weather View 32 v60,2013-08-13 23:05:00,
2013-08-13 19:15:00,62.1,25.8,30.02,NNW,340,3.0,8.0,25,0.00,,,-99.99,Weather View 32 v60,2013-08-13 23:15:00,
2013-08-13 19:20:00,62.1,25.8,30.02,NW,323,3.0,8.0,25,0.00,,,-99.99,Weather View 32 v60,2013-08-13 23:20:00,
2013-08-13 19:25:00,61.9,25.6,30.02,North,353,3.0,8.0,25,0.00,,,-99.99,Weather View 32 v60,2013-08-13 23:25:00,
2013-08-13 19:34:00,61.5,25.3,30.02,NNW,333,4.0,8.0,25,0.00,,,-99.99,Weather View 32 v60,2013-08-13 23:34:00,
2013-08-13 19:40:00,61.3,26.1,30.02,NNW,332,5.0,8.0,26,0.00,,,-99.99,Weather View 32 v60,2013-08-13 23:40:00,
2013-08-13 19:45:00,61.3,26.1,30.02,NNW,342,4.0,8.0,26,0.00,,,-99.99,Weather View 32 v60,2013-08-13 23:45:00,
2013-08-13 19:54:00,61.2,25.9,30.02,NNW,332,0.0,8.0,26,0.00,,,-99.99,Weather View 32 v60,2013-08-13 23:54:00,
2013-08-13 19:59:00,61.2,25.9,30.02,NNW,340,3.0,8.0,26,0.00,,,-99.99,Weather View 32 v60,2013-08-13 23:59:00,
2013-08-13 20:04:00,61.0,26.7,30.02,NW,314,0.0,8.0,27,0.00,,,-99.99,Weather View 32 v60,2013-08-14 00:04:00,
2013-08-13 20:10:00,61.0,26.7,30.02,NW,325,0.0,8.0,27,0.00,,,-99.99,Weather View 32 v60,2013-08-14 00:10:00,
2013-08-13 20:15:00,60.8,26.5,30.02,NNW,332,0.0,8.0,27,0.00,,,-99.99,Weather View 32 v60,2013-08-14 00:15:00,
2013-08-13 20:25:00,60.4,26.2,30.02,North,8,2.0,8.0,27,0.00,,,-99.99,Weather View 32 v60,2013-08-14 00:25:00,
2013-08-13 20:35:00,60.1,25.0,30.02,ENE,70,3.0,8.0,26,0.00,,,-99.99,Weather View 32 v60,2013-08-14 00:35:00,
2013-08-13 20:40:00,59.7,24.7,30.02,North,0,4.0,8.0,26,0.00,,,-99.99,Weather View 32 v60,2013-08-14 00:40:00,
2013-08-13 20:45:00,59.5,24.6,30.02,NNW,338,4.0,8.0,26,0.00,,,-99.99,Weather View 32 v60,2013-08-14 00:45:00,
2013-08-13 20:50:00,59.4,24.4,30.05,ENE,64,4.0,8.0,26,0.00,,,-99.99,Weather View 32 v60,2013-08-14 00:50:00,
2013-08-13 20:55:00,59.2,25.1,30.05,NW,311,3.0,8.0,27,0.00,,,-99.99,Weather View 32 v60,2013-08-14 00:55:00,
2013-08-13 21:00:00,59.2,25.1,30.05,NW,308,0.0,8.0,27,0.00,,,-99.99,Weather View 32 v60,2013-08-14 01:00:00,
2013-08-13 21:05:00,59.0,25.0,30.05,WNW,303,2.0,8.0,27,0.00,,,-99.99,Weather View 32 v60,2013-08-14 01:05:00,
2013-08-13 21:10:00,58.8,24.8,30.05,WNW,294,4.0,8.0,27,0.00,,,-99.99,Weather View 32 v60,2013-08-14 01:10:00,
2013-08-13 21:15:00,58.8,25.7,30.05,NW,324,3.0,8.0,28,0.00,,,-99.99,Weather View 32 v60,2013-08-14 01:15:00,
2013-08-13 21:20:00,58.8,25.7,30.05,NNW,340,0.0,8.0,28,0.00,,,-99.99,Weather View 32 v60,2013-08-14 01:20:00,
2013-08-13 21:25:00,58.6,25.6,30.05,NW,318,3.0,8.0,28,0.00,,,-99.99,Weather View 32 v60,2013-08-14 01:25:00,
2013-08-13 21:30:00,58.6,25.6,30.05,NW,308,0.0,8.0,28,0.00,,,-99.99,Weather View 32 v60,2013-08-14 01:30:00,
2013-08-13 21:39:00,58.5,25.4,30.05,NW,311,0.0,8.0,28,0.00,,,-99.99,Weather View 32 v60,2013-08-14 01:39:00,
2013-08-13 21:44:00,58.3,26.1,30.05,NW,321,3.0,8.0,29,0.00,,,-99.99,Weather View 32 v60,2013-08-14 01:44:00,
2013-08-13 21:49:00,58.1,25.9,30.05,North,350,3.0,8.0,29,0.00,,,-99.99,Weather View 32 v60,2013-08-14 01:49:00,
2013-08-13 21:54:00,58.1,25.1,30.05,North,4,0.0,8.0,28,0.00,,,-99.99,Weather View 32 v60,2013-08-14 01:54:00,
2013-08-13 21:59:00,57.9,24.9,30.05,NW,320,4.0,8.0,28,0.00,,,-99.99,Weather View 32 v60,2013-08-14 01:59:00,
2013-08-13 22:04:00,57.7,24.8,30.05,NNW,341,3.0,8.0,28,0.00,,,-99.99,Weather View 32 v60,2013-08-14 02:04:00,
2013-08-13 22:09:00,57.7,24.8,30.05,NW,321,3.0,8.0,28,0.00,,,-99.99,Weather View 32 v60,2013-08-14 02:09:00,
2013-08-13 22:14:00,57.6,24.6,30.05,NNW,333,3.0,5.0,28,0.00,,,-99.99,Weather View 32 v60,2013-08-14 02:14:00,
2013-08-13 22:19:00,57.6,24.6,30.05,WNW,300,3.0,5.0,28,0.00,,,-99.99,Weather View 32 v60,2013-08-14 02:19:00,
2013-08-13 22:24:00,57.6,24.6,30.05,NNW,343,2.0,5.0,28,0.00,,,-99.99,Weather View 32 v60,2013-08-14 02:24:00,
2013-08-13 22:29:00,57.4,25.3,30.05,NNW,330,3.0,5.0,29,0.00,,,-99.99,Weather View 32 v60,2013-08-14 02:29:00,
2013-08-13 22:34:00,57.4,25.3,30.05,NW,319,2.0,5.0,29,0.00,,,-99.99,Weather View 32 v60,2013-08-14 02:34:00,
2013-08-13 22:40:00,57.2,25.2,30.05,NW,319,0.0,5.0,29,0.00,,,-99.99,Weather View 32 v60,2013-08-14 02:40:00,
2013-08-13 22:45:00,57.2,25.2,30.05,NW,317,0.0,5.0,29,0.00,,,-99.99,Weather View 32 v60,2013-08-14 02:45:00,
2013-08-13 22:50:00,57.2,25.2,30.05,NNW,328,2.0,5.0,29,0.00,,,-99.99,Weather View 32 v60,2013-08-14 02:50:00,
2013-08-13 22:55:00,57.0,25.8,30.05,NNW,340,2.0,5.0,30,0.00,,,-99.99,Weather View 32 v60,2013-08-14 02:55:00,
2013-08-13 23:00:00,56.8,25.7,30.05,NNW,335,2.0,5.0,30,0.00,,,-99.99,Weather View 32 v60,2013-08-14 03:00:00,
2013-08-13 23:05:00,56.8,25.7,30.05,NNW,328,2.0,5.0,30,0.00,,,-99.99,Weather View 32 v60,2013-08-14 03:05:00,
2013-08-13 23:10:00,56.7,25.5,30.05,NW,315,0.0,5.0,30,0.00,,,-99.99,Weather View 32 v60,2013-08-14 03:10:00,
2013-08-13 23:15:00,56.5,26.1,30.05,North,0,3.0,5.0,31,0.00,,,-99.99,Weather View 32 v60,2013-08-14 03:15:00,
2013-08-13 23:20:00,56.3,26.0,30.08,NNW,336,0.0,5.0,31,0.00,,,-99.99,Weather View 32 v60,2013-08-14 03:20:00,
2013-08-13 23:25:00,56.1,25.8,30.08,NW,315,0.0,5.0,31,0.00,,,-99.99,Weather View 32 v60,2013-08-14 03:25:00,
2013-08-13 23:30:00,55.9,26.4,30.08,NW,325,0.0,4.0,32,0.00,,,-99.99,Weather View 32 v60,2013-08-14 03:30:00,
2013-08-13 23:35:00,55.8,26.3,30.08,North,357,0.0,4.0,32,0.00,,,-99.99,Weather View 32 v60,2013-08-14 03:35:00,
2013-08-13 23:40:00,55.4,26.7,30.08,North,357,0.0,4.0,33,0.00,,,-99.99,Weather View 32 v60,2013-08-14 03:40:00,
2013-08-13 23:45:00,55.2,27.3,30.08,North,357,0.0,4.0,34,0.00,,,-99.99,Weather View 32 v60,2013-08-14 03:45:00,
2013-08-13 23:50:00,54.9,27.7,30.08,North,357,0.0,4.0,35,0.00,,,-99.99,Weather View 32 v60,2013-08-14 03:50:00,
2013-08-13 23:55:00,54.7,27.5,30.08,North,357,0.0,4.0,35,0.00,,,-99.99,Weather View 32 v60,2013-08-14 03:55:00,